Wind_Speed
6 7 8 8 8 8 9 10 10 10 11 12 12 13 14 15 17 18 19 19 19 19 20 20 21 22 22 23 23 22 21 20 20 21 22 22 22 21 21 19 18 18 19 19 19 20 20 19 17 17 16 14 13 13 13 13 12 10 8 8 8 8 8 8 8 7 8 8 8 7 6 5 5 6 6 6 6 6 5 4 4 4 4 3 4
8 8 9 9 8 9 9 9 10 10 10 11 12 13 14 15 16 17 18 18 18 18 18 20 20 21 22 23 23 23 22 21 20 21 22 23 23 22 21 20 19 19 19 18 18 20 20 20 18 16 16 14 13 12 13 12 12 10 8 7 7 8 8 7 7 7 8 8 7 7 6 6 6 7 7 6 7 6 6 5 5 5 5 4 4
9 9 9 9 9 9 9 9 10 10 10 11 11 12 14 15 15 16 17 17 17 16 17 18 19 20 21 21 22 23 22 20 20 21 22 23 23 23 23 21 21 20 19 18 18 19 20 20 19 17 15 15 13 12 12 12 12 10 8 7 7 8 8 7 7 8 8 8 7 7 6 6 6 7 7 7 7 7 7 6 6 6 6 5 5
9 9 8 9 9 9 9 9 10 10 10 10 12 12 14 15 15 15 16 15 15 15 16 17 17 18 19 20 20 21 22 21 20 20 21 23 24 24 25 24 22 21 20 19 18 18 19 20 19 17 14 14 14 13 12 12 12 10 8 7 7 8 8 8 8 8 8 8 7 7 7 7 7 7 8 8 8 8 7 7 7 7 6 6 6
8 8 8 8 8 9 9 9 9 10 10 10 11 12 13 14 14 14 14 14 15 15 15 15 16 17 17 18 19 19 20 21 21 20 21 22 23 24 25 26 24 23 21 20 19 19 19 19 19 17 14 13 13 13 12 12 12 11 9 7 7 8 8 8 9 9 8 8 8 7 7 8 8 8 8 8 8 8 9 9 8 7 7 6 6
7 6 7 7 8 9 9 9 9 10 10 11 11 12 13 13 13 13 12 13 15 15 15 14 15 16 16 16 17 19 19 20 21 21 21 21 22 23 23 25 27 25 21 20 20 19 19 18 18 18 16 13 12 13 12 12 11 11 9 8 8 8 8 9 9 9 9 8 8 7 8 8 8 8 8 9 9 9 9 10 9 8 7 6 6
5 6 6 7 8 8 9 10 10 11 11 11 12 12 12 12 13 13 12 13 14 15 15 14 14 15 15 15 16 17 18 20 21 21 21 21 22 22 22 22 24 24 22 21 20 19 19 19 18 18 17 15 13 13 12 12 11 11 10 8 8 8 8 9 9 9 9 8 8 8 9 9 9 9 9 10 10 10 10 10 10 9 7 6 6
5 5 6 7 8 9 10 10 11 11 11 11 12 12 12 12 13 13 13 13 13 14 14 14 14 14 15 14 14 15 16 18 20 21 21 21 21 22 22 21 21 22 22 22 21 19 18 19 18 17 18 17 15 13 12 12 11 11 10 9 8 8 9 9 9 9 9 9 9 9 10 10 10 10 10 10 11 11 11 11 11 9 8 7 7
4 5 6 7 8 9 10 10 11 11 11 11 12 12 12 12 13 13 13 13 13 13 13 13 13 14 14 14 14 14 15 17 18 19 20 19 19 20 22 22 21 21 22 22 22 20 19 18 18 17 17 17 16 14 12 11 11 11 11 10 9 8 9 10 9 9 9 10 10 10 10 11 11 11 10 11 11 12 12 12 11 10 8 7 7
5 5 7 8 9 9 10 10 10 11 11 11 11 12 12 12 13 14 14 13 13 13 13 13 13 13 14 14 15 15 15 16 16 17 17 17 17 18 19 21 21 21 22 21 21 21 20 18 17 17 17 17 17 15 13 11 11 11 11 11 9 9 10 10 10 10 10 10 10 11 11 12 12 11 11 11 11 12 12 12 12 11 9 8 7
5 6 7 9 10 10 10 10 10 10 10 11 11 11 11 11 12 13 13 14 13 13 14 13 14 14 14 15 15 15 15 15 16 16 16 16 16 16 17 18 19 19 20 21 21 21 21 20 19 18 18 18 18 16 14 12 11 11 11 11 10 10 11 11 11 10 11 11 11 11 12 13 12 12 11 11 12 12 12 12 12 11 10 9 8
6 7 8 10 11 11 11 10 10 10 10 10 10 11 11 11 11 11 12 13 13 14 14 14 15 15 15 15 15 15 15 15 15 15 15 16 15 15 15 16 17 18 19 21 21 21 21 22 21 21 20 19 18 18 16 13 12 12 12 12 12 11 11 12 12 11 11 12 12 13 13 13 13 12 12 12 11 12 12 12 12 12 10 10 9
8 9 10 12 13 13 12 11 9 9 10 10 11 11 12 11 11 11 12 13 14 14 15 15 15 15 16 16 16 16 16 15 15 15 15 16 16 15 15 15 15 16 18 19 21 21 21 22 22 22 22 21 19 18 17 15 13 13 13 13 13 13 13 13 13 12 12 13 13 14 14 14 13 13 13 12 11 11 11 12 12 12 11 10 10
9 11 12 13 14 14 13 11 10 10 11 12 12 13 13 12 12 12 12 13 14 15 15 15 15 15 16 16 16 17 17 16 16 15 15 16 16 17 16 16 15 15 17 18 19 20 21 22 22 22 22 22 20 19 18 17 15 14 13 14 14 14 14 14 14 13 14 15 15 15 15 15 14 14 13 12 11 11 11 11 11 12 12 11 11
10 11 13 13 14 14 13 12 11 12 13 14 14 14 14 13 12 12 12 13 13 14 15 15 14 15 16 15 14 15 16 17 16 15 16 16 16 17 17 18 17 17 18 19 19 20 21 22 23 23 22 22 22 21 20 18 17 15 14 15 15 15 15 15 15 15 15 16 16 16 16 16 15 15 14 12 11 11 11 11 11 12 12 12 11
11 12 13 14 14 14 13 12 12 13 13 14 14 14 14 14 13 13 13 13 13 14 14 15 14 14 15 14 14 14 13 15 17 17 18 17 15 16 17 18 19 19 20 20 21 21 22 22 23 23 23 23 22 22 21 20 19 18 16 16 16 17 17 16 16 16 17 17 17 17 17 17 16 16 14 13 12 12 12 12 12 12 12 12 12
12 13 14 15 15 14 13 13 13 14 14 13 13 13 14 14 14 15 15 14 14 15 15 15 13 13 13 13 13 13 13 15 18 18 18 18 17 16 17 18 20 21 21 22 22 22 22 23 23 22 23 24 23 23 22 22 21 20 19 17 17 19 18 17 17 17 18 18 18 18 18 18 18 17 15 14 13 12 12 12 12 13 13 13 13
13 14 15 15 15 15 14 14 15 15 14 13 13 14 15 16 15 16 16 16 16 16 15 14 14 13 13 13 13 14 15 16 17 17 18 19 20 19 19 19 20 21 22 22 23 23 23 23 23 23 23 24 24 24 24 24 23 22 21 19 19 20 19 18 18 18 19 19 19 19 19 19 19 18 16 15 14 13 13 13 13 13 13 14 14
14 14 15 15 15 15 14 15 15 15 14 13 13 14 15 15 16 16 16 16 16 16 15 14 14 13 13 13 13 14 15 16 16 17 18 19 20 20 21 21 22 23 22 22 23 24 24 24 24 24 24 25 26 26 26 26 25 24 23 22 21 22 21 20 20 20 20 20 19 19 19 20 20 19 17 16 16 15 14 13 13 13 14 14 14
14 15 15 15 15 15 15 15 16 15 14 14 14 15 14 14 15 14 14 14 15 15 15 15 15 15 14 14 14 14 15 16 17 18 18 19 19 20 21 23 24 24 24 24 24 25 26 26 26 26 26 26 27 27 27 27 26 25 25 24 23 23 23 22 21 21 21 21 20 20 21 21 20 19 18 18 17 16 15 14 13 13 14 14 15
14 15 15 15 14 14 15 16 16 16 15 15 15 15 14 14 14 14 14 14 15 15 16 16 17 17 17 17 17 17 16 16 17 17 18 20 20 20 21 22 23 24 26 27 26 27 27 28 28 28 28 27 27 28 29 28 28 27 26 25 24 25 25 24 23 23 23 23 23 23 22 22 22 20 20 19 19 18 17 15 14 14 14 15 15
15 15 15 15 14 14 15 15 15 15 15 15 14 14 14 13 13 14 14 15 15 16 16 17 17 18 19 19 20 20 19 18 18 18 18 20 21 21 21 22 23 24 26 28 28 29 28 29 30 29 29 29 28 29 30 30 30 29 28 27 26 27 27 26 26 25 25 25 25 25 24 23 23 22 20 20 20 19 19 17 16 15 15 15 15
15 15 15 15 14 14 15 15 15 14 14 14 14 13 13 13 13 14 14 15 15 16 17 18 18 19 19 20 21 22 22 21 20 19 19 20 21 22 22 22 23 24 25 27 30 30 29 30 31 30 29 29 28 29 30 31 32 31 30 29 28 29 29 29 28 27 26 27 27 27 25 23 24 22 21 21 20 20 20 19 18 17 16 15 15
15 15 15 14 14 14 15 15 15 14 14 14 14 14 14 14 14 15 15 16 16 16 17 18 19 20 20 21 22 23 23 24 23 22 21 21 22 24 22 22 24 24 23 25 28 30 29 27 28 29 28 27 26 28 30 31 31 31 31 31 30 31 31 30 30 29 28 28 28 28 26 25 25 23 23 22 21 21 21 21 19 18 18 16 16
15 15 15 15 15 15 15 15 15 15 15 15 14 15 15 15 16 16 17 18 18 18 18 19 20 21 21 22 23 24 24 25 26 24 23 23 23 24 22 23 25 24 23 24 25 28 28 25 24 27 29 29 28 28 29 31 31 31 32 32 31 33 34 32 32 32 30 30 30 28 28 27 26 24 24 23 22 22 22 22 21 20 19 18 17
15 15 15 15 15 15 15 16 16 17 17 17 16 16 17 17 18 19 19 20 20 20 20 20 21 22 22 23 23 24 25 26 26 26 26 25 24 23 23 24 25 24 24 24 24 26 26 24 23 25 27 28 29 29 29 30 31 32 34 33 32 34 36 35 35 34 33 32 31 30 29 29 27 26 26 25 24 23 22 23 23 22 21 20 19
15 15 15 15 15 15 16 16 17 18 18 18 18 19 19 20 21 21 22 22 22 22 22 22 22 23 23 24 24 24 25 26 26 26 26 26 24 22 23 24 24 24 24 24 23 24 24 23 22 23 23 25 26 28 28 29 31 33 36 36 33 34 37 37 36 36 35 34 33 32 31 30 30 29 28 26 25 25 24 24 24 23 23 21 20
15 15 15 15 15 16 16 17 18 18 19 19 20 20 21 22 23 23 23 23 23 24 24 24 24 24 24 24 25 24 25 26 27 26 26 26 25 23 23 24 25 24 24 24 22 22 23 24 23 22 22 23 25 26 28 29 31 33 36 36 34 34 37 39 39 38 37 36 34 34 33 32 31 32 30 28 27 26 25 25 24 24 24 23 22
14 15 15 15 16 16 16 17 18 18 19 20 21 21 22 23 23 24 24 25 25 25 25 25 25 25 25 25 25 25 25 27 27 26 26 26 26 24 22 23 24 24 24 25 23 21 23 24 24 23 22 23 25 26 28 29 29 30 33 35 35 35 35 39 41 40 39 37 36 35 35 34 33 33 32 30 29 27 26 25 25 25 25 25 24
14 15 15 15 16 16 16 17 18 18 19 20 21 22 22 23 24 25 26 26 26 26 27 27 26 26 26 25 26 26 26 27 27 27 27 27 25 23 22 22 23 25 25 27 26 22 22 24 23 24 25 24 25 27 28 29 28 27 30 34 36 34 33 37 41 41 40 39 38 37 36 36 35 34 34 32 30 29 27 26 26 26 26 26 25
14 15 15 15 15 16 16 17 18 19 20 20 21 22 23 25 25 26 27 28 28 27 27 28 27 27 26 26 26 26 26 27 27 27 27 26 24 23 24 24 25 26 24 26 29 25 22 24 24 25 26 26 26 28 28 28 28 28 30 34 35 33 31 35 39 41 42 41 40 39 38 37 36 36 35 34 32 31 30 27 27 27 26 26 27
14 14 15 15 16 16 17 18 18 19 20 21 23 24 25 26 27 28 28 28 29 28 28 27 27 27 26 25 26 26 27 26 26 27 26 25 24 23 23 25 26 26 24 26 29 28 24 25 26 26 26 27 28 28 29 29 29 29 29 31 33 32 31 34 39 41 42 43 41 39 39 37 36 37 36 35 33 32 32 30 28 27 27 27 28
15 15 15 15 16 17 17 18 19 20 21 23 24 25 26 27 28 29 29 29 29 28 28 27 27 27 26 25 26 26 28 27 26 26 26 25 24 22 22 24 26 27 26 26 28 30 27 26 27 27 27 27 27 27 29 30 30 29 27 27 29 32 33 35 40 41 41 43 43 40 39 38 37 37 37 35 34 34 33 32 30 29 29 29 29
15 15 15 15 16 17 18 19 20 21 23 24 26 27 28 29 30 30 30 30 29 29 29 28 28 28 27 26 26 27 27 28 26 26 26 25 24 23 22 23 24 26 28 27 28 30 29 27 28 28 28 28 27 27 28 29 30 29 27 27 29 33 35 37 41 42 40 42 44 41 40 39 38 38 37 36 36 35 34 33 33 32 31 31 31
15 15 15 16 16 17 19 20 21 23 24 26 28 29 30 31 32 32 32 31 31 30 29 29 29 29 28 28 28 27 27 27 26 26 25 24 23 24 24 24 23 25 28 29 29 29 29 29 30 29 30 30 28 27 28 29 30 29 28 28 30 33 37 38 40 42 41 42 44 43 41 40 39 39 38 37 37 36 35 34 34 34 33 33 33
15 15 16 17 18 19 20 21 23 25 26 28 30 31 33 33 34 34 33 32 32 31 31 30 30 30 30 29 29 28 27 27 26 26 25 23 22 23 25 24 23 25 27 29 29 29 30 31 31 30 30 31 30 28 28 29 31 30 29 29 30 33 35 37 38 40 42 42 43 43 42 41 40 40 39 39 38 37 36 35 35 35 34 34 34
16 17 18 19 20 21 22 24 25 27 29 31 33 34 35 35 35 35 34 33 33 32 32 31 31 30 30 29 28 28 27 27 26 25 25 24 23 23 24 24 24 25 26 26 27 29 31 32 31 29 29 30 30 29 28 29 30 29 29 29 30 31 34 37 37 37 39 41 43 44 44 42 41 41 40 39 39 38 37 37 37 36 35 35 35
18 19 20 21 22 24 25 27 29 30 32 34 35 36 36 36 36 35 35 34 33 32 32 31 31 30 29 28 28 27 27 26 25 24 24 24 24 24 24 24 25 27 26 25 27 30 30 30 28 28 29 29 29 29 28 28 29 28 27 27 29 30 34 38 38 36 37 40 43 45 45 44 43 42 42 40 40 39 39 38 38 37 36 37 36
19 21 22 23 25 27 28 30 31 33 35 36 36 36 36 35 35 34 34 34 33 32 31 31 29 28 28 27 27 26 26 25 24 23 23 23 23 24 24 24 26 27 26 26 28 29 29 29 28 30 30 29 29 28 27 27 27 27 26 27 29 31 34 39 38 35 37 39 42 44 45 45 44 42 42 42 40 41 41 40 39 38 38 37 36
21 22 24 25 27 29 30 32 34 35 36 36 36 35 35 34 33 33 32 32 32 31 31 30 29 27 26 26 25 25 24 23 23 23 23 23 23 23 23 24 25 25 25 26 27 28 29 29 30 31 31 29 29 28 26 26 27 28 27 26 27 30 33 37 35 34 37 39 40 42 44 45 46 45 44 43 42 42 42 42 41 40 39 38 37
22 24 25 27 28 30 32 34 35 36 36 36 35 34 33 33 32 32 31 31 31 30 30 30 29 28 26 24 23 22 22 22 22 22 22 22 23 22 22 22 23 24 24 25 26 27 28 30 30 30 30 29 29 28 26 26 27 28 28 26 26 27 30 35 36 33 35 40 40 42 44 44 46 46 46 45 45 43 43 44 43 42 41 39 38
23 25 27 28 30 31 33 35 36 36 35 35 34 34 33 33 32 32 32 32 31 30 29 29 29 28 27 24 22 20 20 21 21 20 20 22 23 23 22 22 23 23 23 24 25 26 27 28 29 29 29 29 28 27 28 28 27 27 27 28 29 29 29 35 40 38 37 40 40 42 45 45 45 46 47 47 46 45 45 46 45 44 43 41 40
25 26 28 29 30 32 34 34 35 34 34 34 33 33 32 32 32 32 32 32 31 30 30 29 28 27 26 24 21 19 19 20 20 20 20 21 22 23 23 23 23 24 24 24 25 26 28 29 29 29 30 30 28 27 28 28 28 27 27 29 32 33 32 33 40 44 42 40 39 41 44 46 46 47 48 47 47 47 48 47 46 45 44 42 41
26 27 28 30 31 32 33 33 33 33 32 32 32 31 31 30 30 30 30 30 30 29 29 29 28 27 26 24 22 21 21 21 21 21 22 22 24 25 25 25 26 26 26 27 27 28 29 31 32 31 30 31 30 28 28 28 28 28 28 28 29 33 35 33 35 43 44 40 38 41 43 44 46 48 48 49 48 48 48 47 47 47 45 43 43
26 27 29 30 30 31 31 31 30 30 29 29 28 28 28 28 28 28 27 28 28 28 28 28 28 28 26 25 23 23 22 22 22 23 23 24 25 26 26 27 27 27 28 29 29 30 30 32 33 32 30 29 29 28 28 28 28 29 29 28 27 30 35 34 33 38 43 41 38 39 42 44 46 48 48 49 48 46 47 48 49 49 47 45 44
26 27 28 28 28 28 28 27 26 25 24 24 24 24 24 24 24 25 25 25 26 26 26 26 26 27 26 25 24 24 23 23 23 24 24 24 24 26 26 27 27 27 27 28 29 30 31 31 32 31 28 27 26 26 26 27 28 28 29 28 28 29 31 31 32 36 42 44 40 38 39 42 44 47 47 46 47 48 48 49 50 50 48 47 45
24 25 25 25 24 23 22 21 20 19 19 20 20 20 21 22 22 23 23 24 24 25 25 25 25 25 25 25 24 24 25 25 24 24 23 23 23 24 25 24 24 25 26 27 28 29 28 27 27 27 26 24 24 24 24 25 27 28 28 27 27 29 29 27 30 34 39 43 43 40 39 40 42 44 45 45 47 49 50 49 49 50 49 47 47
21 21 20 19 18 17 16 15 15 16 17 17 18 19 20 21 22 22 22 23 23 24 24 24 24 24 25 25 25 24 23 22 23 22 21 21 21 22 22 22 22 23 24 26 27 26 24 22 22 22 23 23 23 24 24 25 27 28 29 27 25 27 30 28 29 32 35 38 39 39 40 40 39 40 43 45 47 49 50 49 48 49 48 46 47
17 16 14 12 12 12 12 13 14 14 16 17 18 19 19 20 21 21 21 21 22 22 23 23 23 24 24 24 24 22 21 21 21 21 20 20 20 20 20 20 21 22 23 24 25 23 22 21 20 20 20 20 22 23 24 25 27 27 28 27 24 24 29 31 29 28 30 33 36 38 40 40 39 40 42 45 47 48 50 50 49 51 51 47 48
11 10 9 8 9 10 11 12 13 15 16 17 17 18 19 20 20 21 21 21 22 22 23 23 23 23 22 22 22 22 22 22 21 20 20 19 19 19 19 20 20 21 21 21 22 21 20 20 20 21 21 19 19 20 21 22 24 24 25 25 23 23 26 30 30 26 26 30 35 37 39 40 41 41 42 46 48 48 52 56 56 54 52 50 50
6 6 7 8 9 10 11 13 14 15 15 16 16 17 18 19 20 20 21 21 21 21 22 22 23 23 22 21 21 21 21 22 22 21 20 20 19 18 17 16 17 19 19 19 19 19 18 18 17 18 20 19 18 18 18 19 20 21 22 23 24 25 25 27 30 30 27 28 31 34 38 40 41 42 42 45 48 51 55 59 58 54 52 54 55
Wind_Direction
258 266 271 272 275 277 278 281 284 287 287 287 288 288 288 288 288 288 287 286 284 282 280 276 273 272 273 272 273 272 268 264 264 270 274 276 277 279 280 282 287 293 297 301 306 308 308 310 314 320 318 312 312 314 312 310 310 306 298 293 290 283 275 270 268 265 264 262 260 262 262 259 254 248 242 237 236 234 229 221 199 183 176 165 155
271 275 277 279 281 284 287 289 293 298 296 294 294 292 292 292 292 292 292 292 289 286 284 282 280 277 276 275 275 274 270 264 261 263 268 271 274 275 276 279 283 287 292 297 302 305 306 308 311 316 317 312 310 313 311 309 308 306 299 293 288 280 272 265 261 257 254 255 256 258 258 256 251 248 245 239 234 231 227 213 196 187 178 169 163
278 279 279 281 285 290 294 297 302 307 303 301 300 297 297 296 296 295 295 295 292 289 285 283 283 282 280 279 278 276 274 269 263 260 263 268 272 275 276 277 280 283 287 292 299 304 304 306 307 310 315 312 308 309 310 308 307 304 301 297 286 277 268 260 255 250 248 251 253 252 252 252 248 247 247 240 231 227 222 209 196 190 180 176 169
281 283 284 287 293 298 302 304 306 309 309 307 306 305 303 302 302 299 297 296 293 290 287 286 285 284 283 283 280 278 277 275 271 267 265 266 268 271 275 276 277 279 283 287 293 299 300 302 303 303 310 311 305 304 308 308 305 302 300 297 286 275 266 255 249 246 245 247 248 247 247 248 245 246 247 240 231 223 217 207 201 194 185 185 182
284 286 290 294 300 305 307 308 309 310 312 311 311 311 310 309 307 305 302 299 296 292 291 291 289 287 286 285 283 280 279 278 278 276 271 267 265 266 271 274 275 275 278 282 287 293 294 296 298 297 301 307 304 301 304 304 302 300 297 292 283 273 263 253 248 244 243 243 244 242 244 246 243 242 241 239 232 222 213 207 205 200 193 196 198
285 289 296 300 304 310 311 312 314 313 313 313 314 314 313 312 310 310 309 304 301 300 298 295 291 290 289 287 286 282 280 280 281 281 277 273 269 267 268 273 275 275 275 278 282 287 288 289 293 293 295 300 301 297 297 298 298 297 293 288 280 271 260 249 244 241 240 239 240 240 243 244 239 234 233 235 232 222 213 208 207 207 203 204 208
286 293 301 306 310 315 316 316 317 315 312 312 312 312 312 312 312 314 315 310 306 305 304 300 296 294 292 293 292 287 283 283 284 284 283 282 278 274 270 270 274 276 277 278 278 280 282 283 286 289 291 295 297 292 292 294 294 294 290 286 278 269 257 244 238 237 237 238 239 239 241 240 234 227 227 231 229 222 214 210 210 212 212 210 206
290 300 310 314 318 319 320 320 318 314 311 309 307 307 309 310 311 316 317 314 311 310 309 305 303 301 299 300 300 296 292 290 288 288 287 287 283 280 276 271 269 273 276 279 279 276 276 279 282 286 288 290 292 289 287 289 290 290 287 282 276 266 253 241 234 234 236 238 238 238 237 234 228 222 223 228 228 224 216 213 215 215 218 214 202
303 313 322 322 322 323 324 322 316 312 308 306 304 303 306 308 310 314 316 316 316 315 314 310 308 307 304 303 304 304 302 299 296 293 292 291 286 282 280 275 270 271 275 278 279 276 272 273 277 282 284 286 288 284 281 283 284 284 282 278 271 261 250 241 233 232 234 237 238 237 233 227 224 222 223 226 227 226 219 215 217 219 221 217 203
314 321 325 323 325 327 326 323 316 311 308 306 306 306 308 309 311 314 316 317 317 318 317 315 313 311 308 305 305 307 306 303 301 298 296 294 289 284 281 277 274 273 275 276 276 275 273 271 273 278 280 282 284 280 275 276 276 277 276 273 267 257 249 242 235 232 233 235 236 234 230 223 221 223 224 226 226 226 224 219 219 222 221 215 208
313 322 326 327 331 332 329 326 321 314 311 311 311 313 312 311 314 315 317 318 319 319 318 317 317 314 311 307 307 309 308 306 305 303 299 294 291 287 282 279 277 274 275 275 274 273 273 274 274 274 275 277 278 276 271 271 270 270 270 268 264 255 249 244 238 234 233 233 232 230 228 222 221 223 224 223 223 224 224 221 220 222 220 214 210
315 323 328 329 332 334 331 326 323 318 317 317 316 315 314 314 316 316 317 318 318 319 319 318 317 313 311 310 311 311 309 309 309 307 303 298 294 292 288 284 280 275 273 272 272 270 271 273 273 273 273 273 272 269 267 267 267 266 266 265 262 255 248 244 240 235 232 230 227 227 226 223 221 222 222 221 220 221 221 219 219 219 218 215 213
318 322 325 327 329 331 329 324 321 321 323 323 322 320 318 319 320 319 320 318 318 320 320 320 318 315 313 311 312 311 310 311 310 308 305 303 300 298 295 290 285 279 274 270 270 270 271 272 273 274 274 272 269 265 263 264 264 263 263 262 258 253 248 245 242 236 231 228 225 225 226 224 222 220 219 220 219 218 217 216 216 217 216 215 214
315 318 321 323 326 328 326 323 322 324 327 327 327 326 323 323 322 320 320 319 318 319 320 319 317 313 309 311 313 311 312 313 311 309 307 305 304 302 299 296 292 285 278 273 271 271 271 272 272 273 274 272 267 264 261 261 262 260 258 257 254 251 247 244 243 237 230 227 224 224 226 225 223 219 217 217 216 214 212 212 214 216 216 215 215
311 314 317 320 324 325 324 323 324 327 329 329 329 327 325 323 323 322 321 320 318 318 318 316 313 308 308 312 313 312 315 315 312 312 310 305 303 302 300 298 295 290 284 281 278 276 274 272 270 268 269 270 267 263 261 260 260 258 254 253 252 250 247 244 242 237 229 226 225 226 227 226 222 220 217 214 213 211 210 209 212 215 217 216 214
310 311 314 319 321 321 321 322 322 326 328 329 328 326 324 322 324 326 324 321 318 316 315 312 310 307 307 308 308 310 314 309 309 313 312 308 305 302 299 297 295 292 290 288 286 283 279 275 270 265 263 265 267 265 263 259 257 256 253 251 251 250 247 244 241 236 229 226 225 227 229 226 221 221 218 213 211 211 211 210 212 215 216 214 211
307 310 313 317 318 316 317 318 319 323 326 327 325 323 323 322 323 325 323 321 316 313 311 310 308 306 305 305 303 305 303 298 303 309 309 308 306 304 301 299 294 292 291 290 289 287 283 279 274 268 261 259 262 265 264 260 255 253 252 250 250 250 246 243 240 235 230 227 225 227 229 226 221 222 219 214 212 213 213 212 213 215 214 213 209
305 310 312 312 312 311 312 314 317 322 324 323 323 322 322 322 323 324 323 320 316 314 312 309 308 309 308 307 302 299 298 297 301 302 301 302 303 303 302 298 295 292 290 289 288 287 285 282 277 272 266 261 260 261 262 261 256 252 251 248 247 248 245 241 240 235 231 230 227 226 226 224 222 223 220 215 213 214 215 214 213 213 213 212 208
306 309 309 309 307 306 307 310 314 318 320 320 320 320 320 321 322 323 322 320 319 320 319 314 314 315 312 312 309 303 302 302 301 298 296 298 300 302 301 299 295 292 290 288 286 284 282 280 277 272 268 264 260 259 259 260 257 252 249 246 243 244 243 240 238 235 231 230 230 228 226 224 223 223 221 217 214 214 216 216 214 213 212 211 207
304 306 305 304 302 301 303 307 310 312 315 318 319 318 319 319 319 320 320 321 322 323 324 324 324 323 319 317 314 308 306 305 302 299 299 299 298 298 298 296 294 293 290 287 284 282 280 278 275 271 267 264 261 258 258 258 257 253 248 245 242 242 242 240 237 233 229 226 227 229 226 224 224 223 222 219 215 214 216 216 215 214 212 210 206
297 298 298 296 293 294 299 303 307 309 313 316 318 317 317 318 318 319 319 319 321 321 324 328 328 328 326 322 319 314 308 304 302 302 302 298 295 294 293 292 293 293 290 287 284 281 279 277 275 272 268 265 262 260 258 256 255 253 248 244 241 240 240 238 236 233 228 224 224 226 224 222 223 223 222 221 217 215 217 216 215 214 212 209 206
292 294 293 291 289 290 293 298 302 305 310 312 313 312 311 314 315 317 317 318 320 320 323 326 327 329 329 327 325 319 312 305 302 300 296 293 293 293 293 292 291 291 290 290 287 282 278 276 274 273 271 268 264 261 260 257 256 253 248 244 240 239 238 237 236 232 227 225 225 227 226 222 224 223 222 222 219 216 217 216 214 213 212 208 205
294 295 292 290 290 290 291 295 298 301 306 307 307 308 309 312 312 314 314 315 317 319 322 324 325 326 326 327 325 322 318 312 306 302 296 294 295 294 295 295 292 290 291 292 291 288 284 277 273 271 270 268 265 263 261 258 257 254 250 245 240 238 238 236 235 231 227 225 225 228 228 225 226 225 222 221 220 217 218 217 215 213 211 208 205
296 294 292 289 288 289 290 293 297 300 303 303 304 306 307 310 311 312 312 312 314 315 317 320 321 322 322 323 323 321 320 317 313 309 301 297 296 295 296 295 293 293 293 292 293 292 290 285 275 268 266 267 266 265 263 259 257 254 251 247 240 237 237 236 235 231 227 225 224 225 227 226 227 225 222 221 219 218 218 218 216 214 211 207 204
295 292 289 288 287 288 290 294 296 297 298 297 299 301 303 306 307 309 310 310 312 313 315 316 318 319 318 319 320 318 319 317 315 312 305 299 295 294 295 294 293 296 294 293 294 292 292 292 282 268 262 264 267 267 265 261 257 253 251 249 240 235 235 235 234 232 227 225 224 223 224 226 226 224 223 222 220 218 218 219 218 215 213 207 202
290 288 287 286 287 289 291 293 293 293 293 292 294 295 299 302 304 306 307 308 310 311 313 314 315 316 315 315 316 316 317 316 313 312 308 302 297 293 293 292 293 296 295 294 293 290 292 295 289 277 267 264 266 266 265 263 259 253 250 250 244 235 232 232 233 232 229 226 224 222 222 224 225 224 223 222 220 219 218 219 218 216 215 211 204
287 285 284 284 286 288 289 290 291 291 290 290 291 293 296 299 301 304 305 306 308 310 312 312 312 313 312 312 313 313 314 313 311 311 309 303 298 294 293 293 294 295 294 293 291 291 292 291 288 283 276 270 267 266 266 265 263 257 251 250 249 241 232 230 232 232 229 227 223 221 220 221 223 224 224 222 221 220 218 219 219 217 215 214 208
285 282 281 281 284 286 288 290 291 291 291 290 290 291 294 296 298 300 302 304 307 309 310 310 310 310 310 310 310 310 312 311 310 311 308 303 299 295 293 293 294 294 293 293 292 291 291 289 287 285 279 273 270 267 266 266 265 261 254 250 253 249 237 232 233 231 229 228 224 221 220 219 221 224 224 223 222 222 220 219 220 219 217 215 212
282 280 279 280 282 285 289 292 293 293 292 292 292 292 294 295 296 298 301 303 306 307 307 308 308 308 308 309 309 309 311 310 309 309 307 304 301 298 293 290 291 291 291 293 294 290 288 288 289 287 281 275 272 269 267 267 268 265 258 252 252 254 244 234 234 231 228 228 225 221 220 219 219 222 223 223 222 222 221 221 222 221 219 216 215
279 278 279 281 284 287 290 294 295 296 296 295 295 295 295 296 297 299 301 303 304 305 305 305 306 306 307 308 308 309 310 308 309 309 306 303 301 296 292 289 288 288 291 294 296 294 289 288 287 283 281 277 273 271 269 268 269 267 262 255 252 254 246 235 233 231 227 227 225 222 220 218 218 221 222 222 221 221 222 222 222 222 220 218 217
279 279 281 283 286 289 293 296 298 298 298 298 297 297 297 298 300 301 302 303 303 304 304 304 304 304 305 307 308 308 307 307 307 306 303 301 298 295 294 291 288 289 292 292 293 294 291 289 286 282 280 278 274 273 272 271 270 267 265 259 252 248 243 236 234 232 228 225 224 222 220 219 218 220 222 222 221 221 222 222 223 223 221 219 218
280 281 283 286 289 294 296 298 300 299 299 299 299 299 300 302 303 303 304 304 304 305 304 304 303 304 305 306 307 306 304 304 303 301 300 297 294 294 294 291 288 288 288 284 286 291 292 289 288 285 283 281 279 276 274 272 272 270 268 262 251 243 242 239 233 230 228 225 223 222 220 219 219 220 222 223 221 221 222 222 222 222 221 220 219
281 283 286 289 293 296 297 298 299 299 300 301 302 304 305 306 307 307 307 307 306 306 305 305 304 304 305 305 305 304 302 302 301 299 297 294 291 291 290 291 290 288 288 286 287 291 292 289 288 287 286 285 284 282 278 274 273 272 269 263 250 240 242 244 235 230 229 224 221 222 221 220 220 221 222 223 221 222 222 222 222 222 221 220 219
282 285 288 291 293 295 297 299 300 302 303 305 306 307 308 309 309 309 309 308 307 307 306 305 304 304 305 304 303 302 300 300 299 297 294 292 290 287 285 286 288 288 288 287 286 288 291 290 288 287 287 287 287 285 280 275 273 273 267 260 253 245 243 244 237 230 227 224 221 220 221 221 220 221 222 222 221 221 222 222 222 222 222 221 220
281 285 287 289 292 294 296 299 302 304 306 307 308 308 308 308 308 308 308 307 306 305 304 303 303 303 303 303 302 301 299 298 297 295 293 291 288 286 284 281 281 285 285 283 282 285 289 289 287 286 287 287 288 286 281 275 272 271 266 260 257 253 247 241 234 228 226 224 222 220 220 222 221 221 223 222 222 221 221 221 222 222 222 222 222
280 283 285 287 290 293 295 299 301 304 305 306 306 307 307 307 307 306 306 305 304 304 303 302 302 302 302 302 301 299 298 296 294 292 290 287 284 285 284 281 278 280 283 284 284 284 284 285 287 287 286 287 287 286 282 277 272 270 267 260 257 256 247 236 231 230 227 224 223 221 221 222 222 222 223 223 222 222 221 220 222 223 222 222 223
279 282 285 288 291 293 295 298 300 302 304 305 305 306 306 305 305 304 303 303 302 302 302 301 301 301 301 300 299 298 296 295 292 290 288 286 284 282 282 283 281 278 280 284 287 285 283 285 288 288 287 287 287 287 283 277 272 268 266 261 260 258 246 233 230 232 230 226 223 221 220 221 222 223 223 224 223 223 222 221 222 223 223 223 223
279 283 286 289 291 294 296 298 300 302 303 305 305 305 305 304 304 303 302 302 301 301 300 300 300 300 300 299 298 297 295 293 290 288 286 284 282 280 280 281 280 278 277 278 281 284 284 286 289 289 288 288 287 287 285 278 271 268 266 265 264 258 243 232 231 233 233 228 222 220 220 220 221 222 223 225 225 223 224 224 223 223 224 225 226
281 285 288 291 293 295 297 299 300 302 303 305 306 305 304 304 303 303 302 302 301 301 300 300 300 301 301 299 298 297 295 293 290 286 283 281 280 279 278 277 277 278 278 277 279 283 286 286 287 287 288 288 286 286 285 279 271 268 267 263 262 259 243 232 232 235 235 229 222 221 222 221 221 222 223 225 225 225 225 225 225 225 225 225 227
285 289 292 294 295 297 298 299 301 303 305 306 305 304 303 303 303 302 302 302 302 302 302 301 301 301 301 301 300 298 296 293 291 288 286 284 280 278 278 277 278 280 281 281 282 284 285 284 285 286 287 287 286 286 286 282 277 274 270 264 264 264 249 236 238 243 238 230 225 222 222 221 222 223 223 224 225 225 225 226 226 226 226 226 226
289 293 295 297 298 298 299 301 303 305 305 305 304 303 302 302 303 303 303 303 304 304 304 303 303 303 303 302 301 300 299 296 293 292 292 291 287 284 282 281 282 282 282 283 283 283 284 284 286 288 287 286 285 285 284 284 283 277 267 261 264 267 255 242 241 245 240 232 228 225 222 222 224 224 224 223 224 224 226 226 226 226 227 226 226
293 295 297 299 299 300 302 304 305 305 305 304 304 304 304 305 305 305 305 305 306 306 306 305 305 305 305 304 303 304 306 305 301 297 295 295 294 292 289 287 286 285 285 286 287 287 286 287 287 288 288 287 286 284 282 283 286 278 264 261 266 268 262 249 239 236 235 232 229 227 225 224 226 226 226 225 224 224 225 226 226 227 227 227 226
296 297 299 300 301 303 304 305 305 304 304 305 306 306 308 308 309 308 308 308 308 307 307 306 306 304 303 304 304 305 304 302 300 297 294 294 296 295 292 290 289 288 288 289 290 290 289 288 288 287 286 286 284 282 280 281 285 281 270 267 267 265 266 259 241 231 231 231 229 229 228 227 227 228 227 227 226 224 225 226 226 227 228 228 228
298 299 301 303 304 305 305 305 305 305 306 308 309 310 312 312 313 313 312 312 311 311 310 309 308 306 303 302 302 302 299 295 294 295 294 294 296 296 293 290 290 289 290 291 291 291 289 288 288 288 285 284 283 281 280 279 281 282 275 268 263 261 266 267 247 232 230 232 232 233 231 230 230 230 230 229 228 227 227 226 226 227 227 228 229
299 302 304 305 306 306 306 306 308 309 311 313 314 316 317 318 318 318 318 318 317 316 316 316 315 313 310 307 305 304 303 300 298 298 298 296 294 293 291 288 287 286 287 291 293 294 293 290 288 288 285 282 281 280 279 276 276 280 279 273 266 260 261 264 255 240 233 233 234 236 236 234 232 232 232 232 231 229 230 229 227 226 226 227 229
303 306 307 307 307 308 309 311 313 315 319 322 325 328 329 330 330 329 328 327 325 324 324 322 322 320 318 315 311 309 308 307 304 301 299 296 291 290 290 290 289 289 289 292 296 297 297 294 291 290 288 285 283 279 276 274 273 274 278 279 273 260 255 260 260 250 240 236 235 237 238 236 234 233 233 233 232 231 232 231 228 226 226 226 227
307 308 309 310 312 314 317 321 325 331 336 340 342 344 343 343 342 340 338 336 333 332 329 327 326 325 323 320 316 314 310 307 306 305 303 300 296 294 295 294 293 294 294 295 297 297 298 297 294 292 291 288 285 280 275 273 273 274 276 280 275 259 251 259 264 256 247 240 234 236 239 236 233 233 233 232 232 233 233 232 230 228 227 226 226
310 311 314 318 321 326 333 341 348 354 356 355 355 355 352 351 349 346 343 340 337 335 332 328 326 325 323 319 315 314 313 311 313 314 311 308 304 301 298 296 296 297 297 296 297 297 299 300 299 297 293 289 285 281 276 273 274 276 275 277 277 261 249 255 264 260 254 245 236 236 239 236 232 231 232 232 232 233 234 234 232 230 227 225 225
316 320 325 332 340 350 358 3 5 6 5 2 1 0 357 356 354 351 348 344 341 338 335 331 327 325 324 320 316 315 317 318 319 318 313 310 307 304 304 304 304 302 299 296 295 297 300 302 304 303 299 293 286 282 280 276 274 275 274 273 279 270 252 247 253 259 259 252 243 240 240 238 234 231 230 232 232 233 235 234 230 229 228 225 225
328 334 345 358 7 10 11 10 9 8 6 3 2 1 0 360 359 357 355 352 348 344 340 335 331 329 328 325 322 321 320 319 319 316 311 305 302 304 306 308 309 306 301 295 292 294 298 301 303 305 304 301 295 289 286 283 277 274 272 269 273 275 261 248 246 254 261 256 249 245 241 237 235 232 230 231 231 231 232 228 222 222 223 222 223
353 7 17 22 21 18 15 12 9 5 2 1 1 3 3 2 2 1 1 359 356 353 350 347 344 342 338 333 328 325 320 317 314 312 307 299 294 295 299 305 311 309 302 294 289 289 294 297 301 305 305 305 304 300 296 294 288 280 274 269 266 269 267 256 247 248 253 254 253 249 243 239 238 236 233 233 232 230 228 221 214 212 213 214 216
Height
3186 3186 3186 3186 3185 3185 3185 3184 3184 3184 3183 3183 3182 3182 3181 3180 3179 3179 3179 3179 3178 3178 3178 3178 3178 3178 3177 3177 3176 3176 3176 3176 3176 3176 3175 3175 3174 3173 3172 3172 3172 3171 3171 3170 3170 3170 3169 3169 3168 3167 3166 3165 3164 3163 3162 3161 3160 3160 3159 3159 3158 3158 3158 3158 3158 3158 3158 3158 3158 3158 3158 3157 3157 3157 3157 3156 3156 3156 3156 3156 3156 3156 3156 3157 3157
3186 3185 3185 3185 3185 3184 3184 3183 3183 3182 3182 3182 3181 3180 3180 3179 3178 3177 3177 3177 3177 3176 3176 3176 3176 3176 3175 3175 3174 3174 3173 3173 3174 3173 3173 3172 3172 3171 3170 3170 3170 3169 3169 3169 3168 3168 3168 3167 3166 3165 3165 3164 3163 3162 3161 3160 3159 3159 3158 3158 3157 3157 3157 3157 3157 3157 3157 3157 3157 3157 3157 3157 3157 3157 3157 3156 3156 3156 3156 3156 3156 3156 3156 3157 3156
3185 3185 3184 3184 3184 3183 3183 3182 3182 3181 3181 3180 3180 3179 3178 3177 3177 3176 3176 3175 3175 3174 3174 3174 3173 3173 3173 3172 3172 3171 3171 3171 3171 3171 3171 3170 3169 3169 3168 3168 3168 3167 3167 3167 3167 3166 3166 3165 3165 3164 3163 3163 3162 3161 3160 3159 3158 3158 3157 3157 3157 3156 3156 3156 3156 3156 3156 3156 3156 3156 3156 3156 3156 3156 3156 3156 3156 3155 3155 3155 3156 3156 3156 3156 3157
3184 3184 3184 3183 3183 3183 3182 3182 3181 3180 3180 3179 3178 3177 3177 3176 3175 3175 3174 3174 3173 3173 3172 3172 3171 3171 3171 3170 3170 3169 3169 3169 3169 3169 3169 3168 3167 3166 3165 3165 3165 3165 3165 3165 3165 3164 3164 3164 3163 3163 3162 3162 3161 3160 3159 3158 3157 3157 3156 3156 3156 3156 3155 3155 3155 3155 3155 3155 3155 3156 3156 3156 3156 3156 3156 3156 3155 3155 3155 3155 3156 3156 3156 3156 3157
3183 3183 3183 3183 3182 3182 3181 3181 3180 3179 3179 3178 3177 3176 3176 3175 3174 3173 3172 3172 3172 3171 3171 3170 3170 3169 3169 3169 3168 3167 3167 3166 3166 3166 3166 3166 3165 3164 3163 3163 3162 3163 3163 3163 3163 3162 3162 3162 3162 3161 3161 3160 3160 3159 3158 3157 3156 3156 3155 3155 3155 3154 3154 3154 3154 3154 3154 3155 3155 3155 3155 3155 3155 3155 3155 3155 3155 3155 3154 3155 3155 3155 3156 3156 3156
3183 3182 3182 3182 3181 3181 3180 3180 3179 3178 3178 3177 3176 3175 3175 3174 3173 3172 3171 3170 3170 3169 3169 3169 3168 3168 3167 3167 3166 3166 3165 3165 3164 3164 3164 3164 3163 3162 3162 3161 3160 3160 3161 3161 3161 3160 3160 3160 3160 3159 3159 3159 3158 3158 3157 3156 3155 3155 3154 3154 3153 3153 3153 3153 3153 3153 3153 3154 3154 3154 3154 3154 3154 3154 3154 3155 3155 3155 3154 3154 3154 3155 3155 3156 3156
3182 3182 3182 3181 3181 3180 3179 3179 3178 3177 3177 3176 3175 3174 3173 3173 3172 3171 3170 3169 3168 3167 3167 3167 3166 3166 3166 3166 3165 3164 3164 3163 3162 3162 3161 3161 3161 3160 3160 3159 3158 3158 3158 3158 3158 3158 3158 3158 3158 3158 3157 3157 3156 3156 3155 3155 3154 3154 3153 3153 3152 3152 3152 3152 3152 3152 3153 3153 3153 3153 3153 3153 3153 3153 3154 3154 3154 3154 3154 3154 3154 3154 3155 3155 3155
3182 3181 3181 3180 3180 3179 3178 3178 3177 3176 3175 3175 3174 3173 3173 3172 3171 3170 3169 3168 3167 3166 3165 3165 3164 3164 3164 3164 3163 3163 3162 3161 3160 3159 3159 3159 3158 3158 3157 3157 3157 3156 3156 3155 3155 3156 3156 3156 3156 3156 3155 3155 3155 3154 3154 3153 3153 3152 3152 3152 3151 3151 3151 3151 3151 3152 3152 3152 3152 3152 3152 3153 3153 3153 3153 3153 3153 3154 3154 3153 3153 3154 3154 3155 3155
3181 3180 3180 3179 3179 3178 3177 3177 3176 3175 3174 3174 3173 3172 3172 3171 3170 3169 3168 3167 3166 3165 3164 3164 3163 3163 3162 3162 3161 3161 3160 3159 3158 3157 3157 3157 3156 3156 3155 3155 3155 3154 3154 3154 3153 3153 3154 3154 3153 3153 3154 3153 3153 3153 3152 3152 3151 3151 3151 3150 3150 3150 3150 3150 3150 3150 3151 3151 3151 3151 3151 3152 3152 3152 3152 3152 3153 3153 3153 3153 3153 3153 3154 3154 3154
3180 3180 3179 3178 3178 3177 3177 3176 3175 3174 3173 3172 3172 3171 3171 3170 3169 3168 3167 3166 3165 3164 3163 3163 3162 3161 3161 3160 3160 3159 3158 3157 3156 3155 3155 3154 3154 3153 3153 3152 3152 3152 3152 3152 3152 3151 3151 3151 3151 3151 3152 3152 3151 3151 3151 3150 3150 3149 3149 3149 3149 3149 3149 3149 3149 3149 3150 3150 3150 3150 3151 3151 3151 3151 3151 3152 3152 3152 3152 3153 3153 3153 3153 3153 3154
3179 3179 3178 3178 3177 3176 3175 3175 3174 3173 3172 3171 3171 3170 3169 3169 3168 3166 3165 3165 3164 3163 3162 3161 3160 3160 3159 3158 3158 3157 3156 3155 3154 3153 3153 3152 3152 3151 3150 3150 3150 3150 3150 3150 3150 3149 3148 3148 3149 3149 3149 3150 3150 3149 3149 3149 3148 3148 3148 3148 3148 3148 3148 3148 3148 3148 3149 3149 3149 3149 3150 3150 3150 3150 3151 3151 3151 3151 3151 3152 3152 3152 3153 3153 3153
3178 3178 3177 3177 3176 3175 3174 3174 3173 3172 3171 3171 3170 3169 3168 3167 3166 3165 3164 3163 3163 3162 3161 3160 3159 3158 3158 3157 3156 3155 3154 3154 3153 3152 3151 3150 3150 3149 3149 3148 3148 3148 3148 3147 3147 3147 3147 3146 3147 3147 3147 3148 3148 3148 3147 3147 3147 3147 3146 3147 3147 3147 3147 3147 3147 3147 3147 3148 3148 3148 3149 3149 3149 3150 3150 3150 3150 3150 3150 3151 3151 3152 3152 3152 3153
3177 3177 3176 3176 3175 3174 3173 3173 3172 3171 3170 3170 3169 3168 3167 3166 3165 3164 3163 3162 3161 3161 3160 3159 3158 3157 3156 3155 3154 3153 3152 3152 3151 3150 3149 3148 3148 3147 3147 3147 3146 3146 3145 3145 3145 3145 3145 3145 3145 3145 3145 3145 3145 3146 3146 3145 3145 3145 3145 3145 3145 3145 3145 3146 3146 3146 3146 3146 3147 3147 3148 3148 3148 3149 3149 3149 3149 3149 3150 3150 3150 3151 3151 3152 3152
3176 3176 3175 3174 3174 3173 3172 3171 3171 3170 3169 3168 3168 3167 3166 3165 3164 3163 3162 3161 3160 3159 3158 3158 3157 3156 3155 3154 3153 3152 3151 3150 3149 3148 3147 3147 3146 3145 3145 3145 3145 3144 3144 3143 3143 3143 3143 3143 3143 3143 3143 3142 3143 3143 3143 3143 3143 3143 3143 3143 3144 3144 3144 3144 3145 3145 3145 3145 3146 3146 3147 3147 3147 3148 3148 3148 3148 3149 3149 3149 3149 3150 3151 3151 3152
3175 3174 3174 3173 3172 3172 3171 3170 3170 3169 3168 3167 3166 3165 3164 3164 3163 3162 3161 3160 3159 3158 3157 3156 3156 3155 3153 3153 3152 3151 3150 3148 3147 3147 3146 3145 3144 3144 3143 3143 3142 3142 3142 3141 3141 3141 3141 3140 3140 3140 3140 3140 3141 3141 3141 3141 3141 3141 3141 3141 3142 3142 3142 3143 3143 3143 3143 3144 3144 3145 3146 3146 3146 3147 3147 3147 3148 3148 3148 3148 3149 3149 3150 3150 3151
3173 3173 3172 3172 3171 3170 3170 3169 3168 3168 3167 3166 3165 3164 3163 3162 3161 3161 3160 3159 3158 3157 3156 3155 3154 3153 3152 3151 3151 3150 3149 3147 3146 3145 3144 3143 3143 3142 3141 3141 3140 3140 3139 3139 3139 3139 3138 3138 3137 3137 3138 3138 3138 3138 3138 3139 3140 3140 3139 3140 3140 3140 3141 3141 3142 3142 3142 3142 3143 3144 3144 3145 3145 3146 3146 3146 3147 3147 3147 3147 3148 3148 3149 3150 3150
3172 3172 3171 3171 3170 3169 3168 3168 3167 3167 3166 3165 3164 3163 3162 3161 3160 3159 3158 3157 3157 3156 3155 3154 3153 3152 3151 3150 3149 3148 3148 3147 3145 3144 3143 3142 3141 3141 3140 3139 3138 3137 3137 3136 3136 3136 3136 3135 3135 3135 3135 3135 3136 3136 3136 3136 3137 3138 3138 3138 3138 3138 3139 3140 3140 3140 3141 3141 3142 3142 3143 3144 3144 3144 3145 3145 3146 3146 3146 3147 3147 3147 3148 3149 3149
3171 3171 3170 3169 3168 3168 3167 3166 3166 3165 3165 3164 3163 3162 3161 3160 3158 3158 3157 3156 3155 3154 3153 3152 3151 3150 3149 3148 3147 3147 3146 3145 3144 3143 3142 3140 3139 3138 3138 3138 3136 3135 3135 3134 3134 3133 3133 3133 3132 3133 3133 3133 3133 3133 3133 3134 3134 3135 3136 3136 3136 3136 3137 3138 3138 3138 3139 3139 3140 3141 3142 3142 3143 3143 3143 3144 3144 3145 3145 3146 3146 3146 3147 3148 3148
3170 3170 3169 3168 3167 3166 3166 3165 3165 3164 3163 3163 3162 3161 3160 3158 3157 3156 3155 3155 3154 3153 3152 3151 3149 3148 3147 3146 3145 3144 3144 3143 3142 3141 3140 3138 3137 3136 3136 3135 3134 3133 3133 3132 3131 3130 3130 3130 3130 3130 3130 3130 3130 3130 3130 3131 3131 3132 3133 3134 3134 3134 3134 3135 3136 3137 3137 3138 3139 3139 3140 3141 3141 3142 3142 3143 3143 3144 3144 3145 3145 3145 3146 3147 3147
3169 3168 3167 3166 3166 3165 3164 3164 3163 3163 3162 3161 3161 3159 3158 3157 3156 3155 3154 3154 3152 3151 3150 3149 3147 3146 3145 3144 3143 3142 3141 3140 3140 3139 3137 3136 3136 3135 3134 3132 3131 3131 3130 3130 3129 3127 3127 3126 3126 3126 3127 3127 3127 3127 3127 3127 3128 3129 3130 3131 3131 3131 3132 3133 3134 3134 3136 3136 3137 3137 3138 3139 3140 3140 3141 3141 3142 3143 3143 3144 3144 3144 3145 3146 3146
3168 3167 3166 3165 3165 3164 3163 3162 3162 3161 3160 3160 3159 3158 3157 3156 3155 3154 3153 3153 3151 3150 3149 3147 3146 3144 3143 3142 3141 3140 3139 3138 3137 3136 3135 3134 3133 3133 3132 3130 3129 3128 3127 3126 3125 3124 3123 3123 3122 3122 3123 3123 3123 3123 3124 3124 3124 3125 3126 3128 3129 3129 3129 3130 3131 3132 3133 3134 3134 3135 3136 3137 3138 3138 3139 3140 3140 3141 3142 3142 3143 3143 3144 3144 3145
3166 3165 3165 3164 3163 3163 3162 3161 3160 3160 3159 3158 3157 3157 3156 3155 3154 3153 3152 3151 3150 3149 3147 3146 3144 3143 3141 3140 3139 3138 3136 3136 3134 3133 3133 3132 3130 3130 3130 3128 3127 3125 3124 3122 3121 3120 3119 3119 3118 3119 3119 3119 3120 3120 3120 3120 3121 3122 3123 3124 3126 3126 3126 3127 3128 3129 3130 3131 3132 3133 3134 3135 3136 3137 3137 3138 3138 3139 3140 3141 3141 3142 3142 3143 3144
3164 3164 3163 3162 3162 3161 3160 3160 3159 3158 3158 3157 3156 3155 3154 3153 3152 3151 3150 3149 3148 3147 3145 3144 3142 3141 3139 3138 3137 3135 3134 3133 3132 3131 3130 3129 3127 3126 3126 3125 3124 3123 3122 3119 3117 3116 3115 3115 3114 3114 3115 3115 3116 3116 3116 3117 3117 3118 3119 3120 3122 3123 3123 3124 3125 3126 3127 3128 3129 3131 3132 3133 3134 3135 3136 3136 3137 3138 3139 3139 3140 3140 3141 3142 3142
3162 3162 3161 3160 3160 3159 3159 3158 3157 3157 3156 3155 3154 3153 3153 3152 3150 3149 3149 3147 3146 3145 3144 3142 3140 3139 3137 3136 3134 3133 3132 3130 3129 3128 3127 3125 3124 3123 3122 3122 3120 3119 3119 3117 3114 3112 3111 3111 3110 3110 3110 3111 3112 3112 3113 3113 3113 3114 3115 3116 3118 3119 3120 3121 3122 3123 3124 3125 3126 3128 3130 3130 3131 3132 3133 3134 3135 3135 3137 3138 3138 3139 3140 3140 3141
3160 3160 3159 3159 3158 3157 3157 3156 3155 3155 3154 3154 3153 3152 3151 3150 3149 3148 3147 3145 3144 3143 3141 3140 3138 3137 3135 3134 3132 3131 3129 3128 3126 3125 3124 3123 3121 3120 3119 3118 3116 3116 3115 3114 3112 3110 3108 3108 3107 3106 3107 3107 3108 3109 3109 3109 3110 3110 3110 3112 3114 3115 3116 3117 3118 3120 3121 3122 3123 3125 3127 3127 3128 3130 3131 3132 3133 3133 3135 3136 3137 3137 3138 3139 3140
3159 3158 3158 3157 3156 3156 3155 3154 3154 3153 3153 3152 3151 3150 3149 3148 3147 3146 3145 3143 3142 3140 3139 3137 3136 3134 3133 3131 3130 3128 3127 3125 3124 3123 3121 3120 3118 3117 3115 3114 3113 3112 3111 3110 3110 3108 3106 3105 3104 3103 3103 3104 3104 3104 3105 3105 3106 3107 3106 3107 3109 3111 3111 3113 3114 3116 3117 3119 3120 3122 3123 3124 3126 3127 3128 3129 3130 3131 3132 3134 3135 3136 3137 3138 3138
3157 3157 3156 3155 3155 3154 3153 3153 3152 3152 3151 3150 3149 3148 3147 3146 3145 3144 3143 3141 3140 3138 3136 3135 3133 3132 3130 3129 3127 3126 3124 3123 3121 3120 3118 3116 3115 3114 3112 3111 3110 3109 3108 3107 3107 3105 3104 3103 3102 3101 3100 3100 3100 3101 3101 3102 3102 3102 3103 3103 3104 3106 3107 3108 3110 3112 3114 3115 3117 3118 3120 3121 3123 3124 3125 3126 3128 3129 3130 3131 3133 3134 3135 3136 3137
3155 3155 3154 3154 3153 3153 3152 3151 3150 3150 3149 3148 3147 3146 3145 3144 3143 3142 3140 3139 3137 3136 3134 3132 3131 3129 3128 3126 3124 3123 3122 3120 3118 3117 3115 3113 3112 3111 3109 3108 3106 3105 3105 3104 3103 3103 3101 3099 3099 3098 3098 3097 3097 3097 3097 3098 3098 3098 3098 3099 3100 3101 3102 3104 3106 3108 3110 3112 3113 3115 3116 3118 3120 3121 3122 3124 3125 3127 3128 3129 3131 3132 3133 3134 3135
3154 3153 3153 3152 3152 3151 3150 3149 3149 3148 3147 3146 3145 3144 3143 3142 3141 3139 3138 3136 3134 3133 3131 3129 3128 3126 3125 3123 3121 3120 3119 3117 3115 3114 3112 3110 3109 3107 3107 3105 3103 3102 3101 3100 3100 3100 3098 3097 3096 3095 3095 3094 3093 3093 3093 3093 3094 3094 3093 3094 3095 3096 3098 3100 3101 3103 3106 3108 3110 3111 3113 3114 3116 3118 3119 3121 3123 3124 3125 3127 3128 3130 3131 3132 3134
3152 3151 3151 3150 3150 3149 3148 3147 3147 3146 3145 3144 3143 3142 3140 3139 3138 3136 3134 3133 3131 3129 3127 3126 3124 3123 3121 3120 3118 3117 3115 3113 3111 3110 3108 3107 3105 3104 3103 3102 3100 3099 3098 3096 3096 3097 3096 3094 3094 3093 3091 3091 3090 3089 3089 3089 3090 3090 3090 3090 3091 3091 3093 3095 3097 3099 3101 3104 3105 3107 3109 3110 3112 3114 3116 3118 3120 3121 3123 3124 3125 3127 3128 3130 3131
3150 3150 3149 3148 3148 3147 3146 3145 3145 3143 3142 3141 3140 3139 3138 3136 3135 3133 3131 3129 3128 3126 3124 3122 3120 3119 3118 3116 3115 3113 3112 3110 3108 3107 3105 3103 3102 3101 3100 3099 3097 3096 3095 3093 3092 3093 3093 3091 3091 3090 3088 3088 3087 3086 3086 3086 3086 3086 3086 3085 3085 3086 3088 3090 3092 3094 3096 3099 3101 3103 3105 3106 3108 3111 3113 3115 3117 3118 3120 3121 3122 3124 3126 3127 3129
3148 3148 3147 3146 3146 3145 3144 3143 3142 3141 3140 3139 3137 3136 3134 3133 3131 3129 3128 3126 3124 3122 3121 3119 3117 3115 3114 3113 3111 3110 3108 3107 3105 3103 3102 3100 3099 3098 3097 3096 3095 3093 3092 3091 3089 3090 3090 3088 3087 3087 3085 3084 3083 3082 3082 3082 3081 3081 3081 3081 3081 3083 3084 3085 3087 3089 3091 3094 3096 3098 3101 3103 3105 3107 3109 3111 3113 3115 3117 3118 3120 3121 3123 3125 3126
3146 3146 3145 3144 3144 3143 3142 3141 3140 3139 3137 3136 3134 3133 3131 3129 3128 3126 3124 3122 3120 3119 3117 3115 3113 3112 3111 3110 3108 3106 3104 3103 3102 3100 3099 3097 3096 3095 3094 3093 3092 3090 3089 3088 3086 3086 3087 3086 3084 3083 3082 3081 3080 3079 3078 3077 3077 3077 3077 3077 3078 3079 3080 3081 3083 3085 3087 3089 3091 3094 3096 3099 3101 3103 3105 3108 3110 3112 3113 3115 3117 3118 3120 3121 3123
3144 3144 3143 3142 3142 3141 3140 3138 3137 3136 3134 3133 3132 3130 3128 3126 3124 3122 3120 3118 3117 3115 3113 3112 3110 3108 3107 3106 3104 3103 3101 3099 3098 3097 3095 3094 3093 3092 3091 3090 3089 3087 3086 3085 3084 3082 3082 3083 3081 3079 3078 3077 3076 3076 3074 3073 3073 3072 3073 3073 3074 3075 3075 3076 3078 3080 3082 3084 3086 3089 3092 3094 3097 3099 3101 3104 3106 3108 3109 3111 3113 3115 3116 3118 3120
3142 3142 3141 3140 3139 3138 3137 3136 3135 3133 3132 3130 3128 3127 3125 3123 3121 3119 3117 3115 3113 3111 3110 3108 3106 3105 3103 3102 3101 3099 3097 3096 3094 3093 3091 3091 3090 3088 3087 3086 3085 3084 3083 3082 3081 3079 3078 3078 3078 3076 3074 3073 3072 3072 3070 3069 3069 3068 3068 3069 3070 3070 3070 3071 3073 3074 3077 3079 3082 3085 3087 3090 3093 3095 3097 3100 3102 3104 3106 3108 3109 3111 3113 3115 3116
3140 3139 3139 3138 3137 3136 3135 3133 3132 3130 3129 3127 3125 3123 3121 3119 3118 3115 3113 3111 3109 3108 3106 3104 3103 3101 3099 3098 3097 3095 3093 3092 3090 3089 3088 3087 3086 3085 3084 3083 3082 3081 3080 3079 3077 3075 3074 3074 3074 3072 3071 3069 3068 3068 3067 3065 3064 3064 3064 3065 3065 3065 3066 3067 3068 3070 3072 3074 3077 3081 3083 3086 3088 3091 3093 3095 3098 3100 3102 3104 3106 3108 3110 3111 3113
3138 3137 3136 3136 3134 3133 3132 3130 3129 3127 3125 3124 3122 3120 3118 3116 3114 3112 3110 3108 3106 3104 3102 3100 3099 3097 3095 3094 3092 3091 3089 3088 3087 3085 3084 3083 3082 3081 3080 3079 3079 3078 3076 3075 3074 3073 3071 3069 3069 3068 3067 3065 3064 3063 3063 3061 3060 3059 3060 3061 3061 3061 3061 3063 3064 3066 3068 3070 3073 3076 3078 3081 3084 3086 3089 3091 3094 3096 3098 3100 3102 3104 3106 3108 3109
3135 3135 3134 3133 3132 3130 3129 3127 3126 3124 3122 3120 3118 3116 3114 3112 3110 3108 3106 3104 3102 3100 3098 3096 3094 3093 3091 3090 3088 3087 3085 3084 3082 3081 3080 3079 3078 3077 3076 3076 3075 3073 3072 3071 3070 3069 3067 3065 3064 3063 3063 3062 3060 3059 3059 3057 3056 3055 3055 3056 3056 3057 3057 3059 3060 3062 3063 3065 3067 3070 3073 3076 3079 3082 3084 3086 3089 3091 3093 3096 3098 3100 3102 3104 3105
3133 3132 3131 3130 3129 3128 3126 3124 3123 3121 3119 3117 3115 3113 3110 3108 3106 3104 3102 3100 3098 3096 3094 3092 3091 3089 3087 3086 3084 3083 3081 3080 3078 3077 3076 3075 3074 3073 3072 3072 3070 3069 3068 3067 3066 3064 3063 3061 3060 3059 3059 3058 3057 3056 3055 3053 3052 3051 3051 3052 3052 3053 3054 3055 3056 3058 3059 3061 3063 3066 3070 3073 3075 3078 3080 3082 3085 3087 3089 3091 3093 3096 3098 3099 3101
3130 3129 3128 3127 3126 3124 3123 3121 3119 3117 3115 3113 3111 3109 3106 3104 3102 3100 3098 3096 3094 3092 3090 3088 3087 3085 3084 3082 3080 3079 3077 3076 3074 3073 3072 3071 3070 3070 3069 3067 3066 3065 3064 3063 3062 3061 3059 3058 3057 3056 3055 3054 3053 3052 3051 3050 3048 3048 3048 3048 3048 3049 3050 3051 3053 3055 3055 3057 3060 3062 3065 3068 3070 3072 3075 3077 3080 3082 3084 3087 3089 3091 3093 3095 3097
3128 3127 3126 3124 3123 3121 3119 3117 3115 3113 3111 3109 3107 3105 3103 3100 3098 3096 3094 3092 3091 3089 3087 3085 3083 3082 3080 3079 3077 3075 3074 3073 3071 3070 3069 3067 3066 3065 3065 3064 3063 3062 3060 3059 3058 3057 3055 3054 3053 3052 3051 3050 3049 3048 3047 3046 3045 3045 3044 3044 3044 3045 3046 3048 3050 3051 3052 3053 3056 3058 3060 3063 3065 3067 3070 3072 3074 3077 3079 3081 3083 3086 3088 3090 3093
3125 3124 3123 3121 3119 3118 3116 3114 3112 3109 3107 3105 3103 3100 3098 3096 3094 3092 3090 3089 3087 3085 3083 3082 3080 3078 3077 3075 3074 3072 3071 3070 3069 3067 3066 3065 3063 3061 3061 3060 3059 3058 3056 3055 3054 3052 3051 3050 3049 3048 3047 3046 3045 3044 3043 3042 3042 3041 3041 3040 3040 3041 3042 3043 3044 3046 3047 3048 3051 3053 3055 3058 3060 3063 3064 3066 3069 3071 3073 3075 3078 3081 3084 3086 3088
3122 3121 3119 3118 3116 3114 3112 3110 3108 3105 3103 3101 3099 3097 3094 3092 3091 3089 3087 3085 3083 3081 3080 3078 3077 3075 3073 3072 3070 3069 3068 3067 3066 3065 3063 3062 3060 3058 3057 3056 3055 3053 3052 3051 3050 3048 3047 3045 3045 3044 3043 3041 3041 3040 3039 3038 3038 3037 3037 3037 3036 3037 3037 3037 3037 3039 3041 3044 3047 3049 3051 3053 3056 3057 3059 3061 3064 3066 3068 3070 3074 3077 3080 3082 3084
3119 3117 3116 3114 3113 3111 3109 3107 3104 3102 3100 3098 3095 3093 3091 3089 3087 3085 3083 3081 3080 3078 3076 3075 3073 3072 3070 3068 3067 3066 3065 3064 3063 3061 3060 3059 3057 3055 3054 3052 3051 3049 3048 3046 3045 3044 3043 3041 3040 3039 3038 3037 3036 3036 3035 3035 3034 3033 3033 3033 3033 3033 3032 3031 3032 3034 3037 3040 3043 3044 3046 3049 3051 3052 3054 3056 3058 3061 3064 3067 3070 3072 3075 3078 3080
3116 3114 3113 3111 3110 3108 3106 3104 3101 3099 3097 3095 3093 3090 3088 3086 3084 3082 3080 3079 3077 3075 3073 3071 3070 3068 3067 3065 3064 3062 3061 3060 3059 3058 3057 3055 3054 3052 3051 3049 3047 3046 3044 3043 3041 3040 3038 3036 3035 3034 3033 3032 3031 3032 3031 3030 3030 3029 3029 3029 3029 3029 3028 3028 3028 3031 3033 3036 3038 3039 3041 3044 3046 3047 3049 3051 3054 3057 3059 3062 3065 3067 3070 3073 3076
3113 3111 3110 3108 3107 3105 3103 3101 3099 3097 3095 3093 3091 3088 3086 3084 3082 3080 3078 3076 3074 3073 3071 3069 3067 3065 3064 3062 3061 3059 3058 3057 3056 3055 3053 3052 3050 3049 3047 3045 3043 3042 3040 3039 3037 3036 3034 3032 3030 3028 3028 3027 3027 3027 3027 3026 3025 3025 3025 3025 3025 3025 3025 3025 3026 3027 3029 3031 3033 3034 3035 3038 3041 3042 3044 3047 3050 3052 3053 3056 3059 3062 3065 3068 3071
3110 3109 3107 3106 3104 3103 3101 3099 3097 3095 3093 3091 3089 3087 3085 3083 3081 3079 3077 3074 3072 3070 3068 3066 3065 3063 3061 3059 3058 3056 3055 3054 3052 3051 3050 3048 3047 3045 3044 3042 3040 3038 3037 3035 3034 3032 3030 3028 3026 3024 3023 3023 3023 3022 3022 3022 3021 3021 3021 3021 3020 3020 3020 3021 3022 3022 3022 3025 3028 3029 3030 3032 3036 3038 3040 3043 3045 3046 3048 3050 3053 3056 3059 3062 3065
3108 3106 3105 3104 3102 3101 3100 3098 3096 3094 3093 3091 3089 3087 3084 3082 3080 3077 3075 3073 3071 3069 3067 3065 3063 3061 3059 3057 3056 3054 3053 3051 3049 3048 3047 3045 3044 3042 3040 3039 3037 3035 3033 3032 3030 3028 3027 3025 3023 3021 3020 3019 3019 3018 3018 3017 3017 3016 3016 3016 3015 3016 3016 3016 3017 3017 3018 3020 3023 3025 3026 3028 3031 3034 3036 3038 3039 3041 3042 3045 3049 3052 3054 3057 3059
3106 3105 3104 3103 3101 3100 3099 3097 3096 3094 3092 3090 3088 3086 3084 3081 3079 3077 3074 3072 3070 3068 3065 3063 3061 3059 3057 3055 3054 3052 3050 3049 3047 3045 3044 3042 3041 3039 3037 3035 3034 3032 3030 3028 3026 3025 3023 3022 3020 3019 3017 3016 3015 3014 3014 3013 3012 3012 3012 3011 3012 3011 3011 3011 3012 3013 3015 3017 3019 3021 3022 3024 3026 3029 3031 3032 3034 3035 3037 3040 3043 3045 3048 3051 3054
3105 3104 3103 3102 3101 3100 3099 3097 3096 3094 3092 3090 3088 3085 3083 3081 3078 3076 3073 3071 3069 3066 3064 3062 3060 3058 3055 3053 3051 3049 3048 3046 3045 3043 3042 3040 3038 3036 3034 3032 3031 3029 3027 3025 3024 3022 3020 3019 3017 3015 3014 3013 3012 3011 3010 3009 3008 3008 3007 3007 3008 3007 3006 3007 3008 3009 3011 3013 3015 3016 3017 3018 3020 3023 3025 3027 3028 3030 3032 3034 3035 3038 3041 3045 3048
3104 3103 3103 3102 3101 3100 3099 3097 3095 3093 3091 3089 3087 3085 3083 3080 3078 3075 3073 3070 3068 3065 3063 3061 3058 3056 3054 3052 3050 3047 3045 3043 3042 3040 3039 3037 3036 3034 3032 3030 3028 3026 3025 3023 3021 3020 3018 3016 3015 3013 3011 3010 3008 3007 3006 3005 3004 3003 3003 3003 3004 3004 3003 3004 3004 3005 3006 3007 3010 3012 3012 3013 3015 3018 3020 3022 3024 3025 3027 3029 3031 3033 3034 3036 3039